Regional Weather Roundup
Issued by NWS Upton, NY

Current Version | Previous Version | Text Only | Print | Product List | Glossary Off
Versions: 1 2 3 4 5 6 7 8 9 10 11 12 13 14 15 16 17 18 19 20 21 22 23 24 25 26 27 28 29 30 31 32 33 34 35 36 37 38 39 40 41 42 43 44 45 46 47 48 49 50
000 ASUS41 KOKX 290608 RWROKX REGIONAL WEATHER ROUNDUP NATIONAL WEATHER SERVICE NEW YORK NY 200 AM EDT FRI MAY 29 2015 NOTE: "FAIR" INDICATES FEW OR NO CLOUDS BELOW 12,000 FEET WITH NO SIGNIFICANT WEATHER AND/OR OBSTRUCTIONS TO VISIBILITY. NYZ071-072-176-178-NJZ106-104-290700- NEW YORK CITY METRO AREA CITY SKY/WX TMP DP RH WIND PRES REMARKS CENTRAL PARK CLEAR 70 52 52 VRB7 30.28S LAGUARDIA APRT PTCLDY 69 53 56 N9 30.25R KENNEDY INTL PTCLDY 69 53 56 N10 30.25S NEWARK/LIBERTY PTCLDY 70 54 56 NE10 30.25R BRNX BOT. GARD N/A 66 52 59 W1 30.27S TETERBORO CLEAR 68 53 58 N5 30.24S $$ NYZ177-179-078>081-290700- LONG ISLAND NEW YORK CITY SKY/WX TMP DP RH WIND PRES REMARKS FARMINGDALE PTCLDY 65 55 70 N6 30.24S ISLIP PTCLDY 65 54 67 N7 30.22S SHIRLEY PTCLDY 63 55 75 N3 30.24S WESTHAMPTON PTCLDY 59 56 89 N6 30.25R MONTAUK POINT N/A 59 57 93 CALM 30.24S $$ NYZ052-065-067-290700- HUDSON VALLEY CITY SKY/WX TMP DP RH WIND PRES REMARKS WHITE PLAINS CLEAR 62 54 74 NW5 30.25S NEWBURGH CLEAR 59 55 88 CALM 30.28R MONTGOMERY CLEAR 55 54 96 S3 30.27S POUGHKEEPSIE CLEAR 58 54 86 CALM 30.26R ALBANY CLEAR 60 54 80 N7 30.27F $$ NJZ001-105-106-008-010-013-015-019>022-104-290700- NEW JERSEY CITY SKY/WX TMP DP RH WIND PRES REMARKS NEWARK/LIBERTY PTCLDY 70 54 56 NE10 30.25R TETERBORO CLEAR 68 53 58 N5 30.24S CALDWELL CLEAR 63 54 72 CALM 30.27R MORRISTOWN CLEAR 63 54 72 CALM 30.26S SOMERVILLE CLEAR 60 55 83 CALM 30.24R SUSSEX CLEAR 56 53 90 CALM 30.29S ANDOVER N/A 57 56 96 CALM 30.28R TRENTON CLEAR 68 54 60 N5 30.24S MILLVILLE CLOUDY 70 68 93 CALM 30.23R ATLANTIC CITY MOCLDY 69 64 84 CALM 30.23S WRIGHTSTOWN CLEAR 66 56 68 NE6 30.22R TOMS RIVER PTCLDY N/A N/A N/A NE5 30.24R BELMAR CLEAR 70 54 56 NE8 30.25R $$ PAZ047>061-062-071-290700- EASTERN PENNSYLVANIA CITY SKY/WX TMP DP RH WIND PRES REMARKS PHILADELPHIA PTCLDY 73 53 49 NE10 30.24R ALLENTOWN CLEAR 65 53 65 NE3 30.27R SCRANTON CLEAR 58 53 84 E6 30.29S $$ CTZ002-004>006-009-010-012-RIZ004-006-007-MAZ004-011-015-290700- SOUTHERN NEW ENGLAND IN CT CITY SKY/WX TMP DP RH WIND PRES REMARKS BRADLEY INTL PTCLDY 58 54 86 NW5 30.24S HARTFORD CLEAR 65 53 65 VRB5 30.24S DANBURY CLEAR 57 53 86 SW3 30.27S WTRBRY/OXFORD CLEAR 59 52 77 N8 30.28S BRIDGEPORT PTCLDY 65 56 72 NW5 30.24S MERIDEN CLEAR 60 54 80 CALM 30.25R NEW HAVEN CLEAR 63 53 70 CALM 30.24R CHESTER FAIR 64 55 72 N6 30.25S HAZE GROTON CLEAR 60 57 89 CALM 30.22S WILLIMANTIC CLEAR 59 55 87 CALM 30.24S IN RI CITY SKY/WX TMP DP RH WIND PRES REMARKS PROVIDENCE CLEAR 66 55 67 N5 30.23S BLOCK ISLAND CLOUDY 57 54 88 W6 30.24R VSB 1/2 WESTERLY CLEAR 57 55 93 CALM 30.23S IN MA CITY SKY/WX TMP DP RH WIND PRES REMARKS BOSTON PTCLDY 67 55 65 W10 30.22S WORCESTER CLEAR 59 53 80 NW7 30.25S WESTFIELD CLEAR 55 53 93 CALM 30.25S PROVINCETOWN CLEAR 61 54 77 NW7 30.22R NANTUCKET CLOUDY 60 57 89 SW8 30.23S $$ ANZ330-335-338-340-345-350-353-355-290700- COASTAL MARINE OBSERVATIONS STATION/POSITION TIME SKY/WX TEMP WIND PRES VSBY WAVE AIR SEA DIR/SP/G HT/PER (UTC) (F) (DEG/KT/KT) (MB) (MI) (FT/S) NY HARB ENTRANCE 0550 60 56 10/ 8/ 8 1023.7 3/ 5 4S FIRE IS 0503 57 N/A 4/ 5 20S FIRE ISLAND 0550 61 57 320/ 6/ 6 1023.6 3/ 5 GREAT SOUTH BAY 0500 67 68 10/ 8/ 8 N/A 23SW MTP 0550 57 54 220/ 4/ 6 1023.3 4/ 5 HUDSON CANYON NOT AVBL KINGS POINT 0500 68 58 30/ 5/ 7 1023.7 CENTRAL LI SOUND 0500 64 59 330/ 6/ 8 N/A EASTERN LI SOUND 0500 57 320/ 4/ 6 N/A ROBBINS REEF 0500 71 10/ 17/ 19 1022.9 $$ >>>>>>>>>>>>>>>>>>>>>>>>>>>> KEY <<<<<<<<<<<<<<<<<<<<<<<<<<< > < > SKY/WX - SKY CONDITION/PRESENT WEATHER < > TMP - TEMPERATURE IN FAHRENHEIT < > DP - DEWPOINT IN FAHRENHEIT < > RH - RELATIVE HUMIDITY IN PERCENT < > WIND - DIRECTION AND SPEED IN MPH < > PRES - MEAN SEA LEVEL PRESSURE IN INCHES OF HG < > WCI - WIND CHILL INDEX < > VSB - VISIBILITY IN MILES < > HX - HEAT INDEX < > TC - TEMPERATURE IN CELSIUS < > VRB - VARIABLE WIND DIRECTION < > < >>>>>>>>>>>>>>>>>>>>>>>>>>>> KEY <<<<<<<<<<<<<<<<<<<<<<<<<<<

USA.gov is the U.S. government's official web portal to all federal, state and local government web resources and services.